Regional Weather Roundup
Issued by NWS

Home | Current Version | Previous Version | Text Only | Print | Product List | Glossary On
Versions: 1 2 3 4 5 6 7 8 9 10 11 12 13 14 15 16 17 18 19 20 21 22 23 24 25 26 27 28 29 30 31 32 33 34 35 36 37 38 39 40 41 42 43 44 45 46 47 48 49 50
000
ASUS44 KMEG 020710
RWRTN
TENNESSEE HOURLY STATE WEATHER ROUNDUP
NATIONAL WEATHER SERVICE MEMPHIS TN
200 AM CDT SAT JUL 02 2016

TNZ002-004-019-021-049-052-054-088>092-020800-
WEST TENNESSEE

CITY           SKY/WX    TMP DP  RH WIND       PRES   REMARKS
MEMPHIS INTL   CLOUDY    80  66  62 NE7       30.04F
NWS MEMPHIS      N/A     75 N/A N/A MISG        N/A
JACKSON        PTCLDY    69  68  96 CALM      30.05S
DYERSBURG      CLEAR     72  63  73 MISG      30.06S
UNION CITY       N/A     68  64  88 NE6       30.06S
PARIS          CLEAR     63  63 100 NE3       30.07S
LEXINGTON      CLEAR     70  66  88 CALM      30.04S
$$

TNZ008-025-027-028-033-062-065-066-020800-
NORTH MIDDLE TENNESSEE

CITY           SKY/WX    TMP DP  RH WIND       PRES   REMARKS
NASHVILLE      PTCLDY    74  66  76 N5        30.05S
CLARKSVILLE    CLEAR     69  61  75 NE7       30.06F
SMYRNA         CLEAR     72  69  90 N3        30.05S
COOKEVILLE       N/A     66  66 100 CALM      30.05S VSB 1
CROSSVILLE     CLEAR     66  64  93 CALM      30.10S
$$

TNZ061-075-076-078-094-096-097-020800-
SOUTH MIDDLE TENNESSEE

CITY           SKY/WX    TMP DP  RH WIND       PRES   REMARKS
FAYETTEVILLE   MOCLDY    73  70  88 CALM      30.05S
TULLAHOMA      CLEAR     66  66 100 CALM      30.07S
WINCHESTER     CLEAR     68  66  94 CALM      30.05S
MCMINNVILLE      N/A     66  66 100 CALM      30.05F VSB 1
COLUMBIA       CLEAR    N/A N/A N/A CALM      30.04S
SHELBYVILLE    CLEAR     70  70 100 CALM      30.06S
$$

TNZ017-018-042-046-047-020800-
NORTHEAST TENNESSEE

CITY           SKY/WX    TMP DP  RH WIND       PRES   REMARKS
TRI CITIES     CLOUDY    67  63  87 CALM      30.06F
ELIZABETHTON   MOCLDY    66  63  88 CALM      30.07S
$$

TNZ012-013-036-069-073-074-020800-
CENTRAL EAST TENNESSEE

CITY           SKY/WX    TMP DP  RH WIND       PRES   REMARKS
KNOXVILLE      PTCLDY    71  64  78 E3        30.03
OAK RIDGE      CLEAR     71  65  81 CALM      30.04F
GATLINBURG     CLEAR     66  61  82 CALM      30.03S
MORRISTOWN     PTCLDY    68  63  83 CALM      30.04F
$$

TNZ083-085-099-020800-
SOUTHEAST TENNESSEE

CITY           SKY/WX    TMP DP  RH WIND       PRES   REMARKS
CHATTANOOGA    PTCLDY    75  67  76 N3        30.03S
$$

SKY/WX REPORTED AS FAIR MEANS FEW OR NO CLOUDS BELOW
12 THOUSAND FEET.




USA.gov is the U.S. government's official web portal to all federal, state and local government web resources and services.